Time,TemperatureF,DewpointF,PressureIn,WindDirection,WindDirectionDegrees,WindSpeedMPH,WindSpeedGustMPH,Humidity,HourlyPrecipIn,Conditions,Clouds,dailyrainin,SoftwareType,DateUTC
2013-03-07 00:00:00,38.7,33.3,29.86,SW,225,9.2,13.6,81,0.00,,,-99.99,meteobridge,2013-03-07 05:00:00,
2013-03-07 00:01:00,38.7,33.3,29.85,SW,225,9.2,13.6,81,0.00,,,0.00,meteobridge,2013-03-07 05:01:00,
2013-03-07 00:06:00,38.7,33.1,29.85,West,270,6.0,7.6,80,0.00,,,0.00,meteobridge,2013-03-07 05:06:00,
2013-03-07 00:11:00,38.7,33.3,29.85,SW,225,12.1,12.1,81,0.00,,,0.00,meteobridge,2013-03-07 05:11:00,
2013-03-07 00:16:00,38.5,32.9,29.85,WNW,293,12.1,12.1,80,0.00,,,0.00,meteobridge,2013-03-07 05:16:00,
2013-03-07 00:22:00,38.5,33.1,29.84,WSW,248,15.2,15.2,81,0.00,,,0.00,meteobridge,2013-03-07 05:22:00,
2013-03-07 00:27:00,38.5,33.1,29.84,West,270,9.8,9.8,81,0.00,,,0.00,meteobridge,2013-03-07 05:27:00,
2013-03-07 00:32:00,38.1,33.4,29.84,West,270,8.3,15.2,83,0.00,,,0.00,meteobridge,2013-03-07 05:32:00,
2013-03-07 00:37:00,38.1,33.4,29.83,NW,315,10.7,10.7,83,0.00,,,0.00,meteobridge,2013-03-07 05:37:00,
2013-03-07 00:42:00,38.1,33.8,29.83,NW,315,6.0,7.6,84,0.00,,,0.00,meteobridge,2013-03-07 05:42:00,
2013-03-07 00:47:00,38.1,34.0,29.83,West,270,9.2,19.0,85,0.00,,,0.00,meteobridge,2013-03-07 05:47:00,
2013-03-07 00:53:00,38.1,34.0,29.83,SW,225,14.5,14.5,85,0.00,,,0.00,meteobridge,2013-03-07 05:53:00,
2013-03-07 00:58:00,38.1,33.8,29.83,South,180,8.3,15.2,84,0.00,,,0.00,meteobridge,2013-03-07 05:58:00,
2013-03-07 01:03:00,38.1,33.8,29.83,SW,225,11.4,11.4,84,0.00,,,0.00,meteobridge,2013-03-07 06:03:00,
2013-03-07 01:08:00,38.1,33.8,29.82,SW,225,11.4,11.4,84,0.00,,,0.00,meteobridge,2013-03-07 06:08:00,
2013-03-07 01:13:00,37.9,33.8,29.83,West,270,9.2,9.2,85,0.00,,,0.00,meteobridge,2013-03-07 06:13:00,
2013-03-07 01:18:00,37.9,33.8,29.82,West,270,11.4,11.4,85,0.00,,,0.00,meteobridge,2013-03-07 06:18:00,
2013-03-07 01:24:00,37.8,33.6,29.82,WSW,248,12.1,12.1,85,0.00,,,0.00,meteobridge,2013-03-07 06:24:00,
2013-03-07 01:29:00,37.6,33.4,29.81,West,270,9.8,15.9,85,0.00,,,0.00,meteobridge,2013-03-07 06:29:00,
2013-03-07 01:34:00,37.6,33.8,29.81,South,180,5.4,9.8,86,0.00,,,0.00,meteobridge,2013-03-07 06:34:00,
2013-03-07 01:39:00,37.4,33.6,29.82,NW,315,17.4,17.4,86,0.00,,,0.00,meteobridge,2013-03-07 06:39:00,
2013-03-07 01:44:00,37.4,33.8,29.81,WNW,293,16.8,16.8,87,0.00,,,0.00,meteobridge,2013-03-07 06:44:00,
2013-03-07 01:49:00,37.2,32.5,29.80,SW,225,14.5,14.5,83,0.00,,,0.00,meteobridge,2013-03-07 06:49:00,
2013-03-07 01:55:00,37.2,32.9,29.80,West,270,11.4,11.4,84,0.00,,,0.00,meteobridge,2013-03-07 06:55:00,
2013-03-07 02:00:00,37.0,32.7,29.79,NW,315,9.2,11.4,84,0.00,,,0.00,meteobridge,2013-03-07 07:00:00,
2013-03-07 02:05:00,37.0,32.9,29.80,SW,225,13.0,19.0,85,0.01,,,0.01,meteobridge,2013-03-07 07:05:00,
2013-03-07 02:10:00,37.0,32.9,29.79,West,270,6.0,15.2,85,0.01,,,0.01,meteobridge,2013-03-07 07:10:00,
2013-03-07 02:15:00,37.0,32.9,29.80,SW,225,9.8,16.8,85,0.01,,,0.01,meteobridge,2013-03-07 07:15:00,
2013-03-07 02:20:00,37.0,32.9,29.80,SSW,203,10.7,10.7,85,0.01,,,0.01,meteobridge,2013-03-07 07:20:00,
2013-03-07 02:26:00,37.0,32.9,29.79,West,270,11.4,11.4,85,0.01,,,0.01,meteobridge,2013-03-07 07:26:00,
2013-03-07 02:31:00,37.2,33.1,29.78,NW,315,7.6,12.1,85,0.01,,,0.01,meteobridge,2013-03-07 07:31:00,
2013-03-07 02:36:00,37.2,33.1,29.78,NW,315,15.9,15.9,85,0.01,,,0.01,meteobridge,2013-03-07 07:36:00,
2013-03-07 02:41:00,37.4,34.2,29.78,NW,315,11.4,16.8,88,0.01,,,0.01,meteobridge,2013-03-07 07:41:00,
2013-03-07 02:46:00,37.4,34.2,29.78,West,270,15.2,22.8,88,0.01,,,0.01,meteobridge,2013-03-07 07:46:00,
2013-03-07 02:51:00,37.4,34.2,29.77,South,180,12.1,15.9,88,0.01,,,0.01,meteobridge,2013-03-07 07:51:00,
2013-03-07 02:56:00,37.4,33.8,29.78,NW,315,19.0,19.0,87,0.02,,,0.02,meteobridge,2013-03-07 07:56:00,
2013-03-07 03:01:00,37.2,32.5,29.78,SW,225,13.6,13.6,83,0.02,,,0.02,meteobridge,2013-03-07 08:01:00,
2013-03-07 03:07:00,37.2,32.5,29.78,SW,225,13.6,13.6,83,0.01,,,0.02,meteobridge,2013-03-07 08:07:00,
2013-03-07 03:12:00,36.9,32.5,29.77,SE,135,13.0,13.0,84,0.02,,,0.04,meteobridge,2013-03-07 08:12:00,
2013-03-07 03:17:00,37.0,32.7,29.78,SW,225,14.5,16.8,84,0.02,,,0.04,meteobridge,2013-03-07 08:17:00,
2013-03-07 03:22:00,37.2,32.9,29.77,North,0,12.1,13.6,84,0.02,,,0.04,meteobridge,2013-03-07 08:22:00,
2013-03-07 03:27:00,37.0,32.7,29.77,North,0,15.9,21.3,84,0.04,,,0.05,meteobridge,2013-03-07 08:27:00,
2013-03-07 03:32:00,37.0,32.7,29.77,West,270,10.7,15.2,84,0.04,,,0.05,meteobridge,2013-03-07 08:32:00,
2013-03-07 03:38:00,37.0,32.7,29.77,South,180,11.4,17.4,84,0.05,,,0.06,meteobridge,2013-03-07 08:38:00,
2013-03-07 03:43:00,37.0,32.7,29.78,WNW,293,13.0,13.0,84,0.05,,,0.06,meteobridge,2013-03-07 08:43:00,
2013-03-07 03:48:00,37.0,32.7,29.77,SW,225,11.4,15.2,84,0.05,,,0.06,meteobridge,2013-03-07 08:48:00,
2013-03-07 03:53:00,37.0,32.9,29.78,NW,315,11.4,15.2,85,0.05,,,0.06,meteobridge,2013-03-07 08:53:00,
2013-03-07 03:58:00,37.0,32.9,29.77,SW,225,14.5,14.5,85,0.04,,,0.06,meteobridge,2013-03-07 08:58:00,
2013-03-07 04:03:00,37.0,32.9,29.77,West,270,18.3,18.3,85,0.05,,,0.07,meteobridge,2013-03-07 09:03:00,
2013-03-07 04:09:00,36.9,32.7,29.78,NW,315,9.2,15.2,85,0.05,,,0.08,meteobridge,2013-03-07 09:09:00,
2013-03-07 04:14:00,36.9,32.7,29.77,North,0,16.8,16.8,85,0.05,,,0.08,meteobridge,2013-03-07 09:14:00,
2013-03-07 04:19:00,36.9,32.7,29.78,WSW,248,9.2,9.2,85,0.05,,,0.08,meteobridge,2013-03-07 09:19:00,
2013-03-07 04:24:00,36.5,32.4,29.78,NW,315,9.8,16.8,85,0.04,,,0.08,meteobridge,2013-03-07 09:24:00,
2013-03-07 04:29:00,36.3,32.2,29.78,SW,225,16.8,16.8,85,0.05,,,0.09,meteobridge,2013-03-07 09:29:00,
2013-03-07 04:34:00,36.5,32.4,29.78,NW,315,5.4,13.6,85,0.05,,,0.11,meteobridge,2013-03-07 09:34:00,
2013-03-07 04:40:00,36.5,32.4,29.78,WSW,248,8.3,10.7,85,0.05,,,0.11,meteobridge,2013-03-07 09:40:00,
2013-03-07 04:45:00,36.5,32.4,29.78,West,270,15.2,15.2,85,0.05,,,0.11,meteobridge,2013-03-07 09:45:00,
2013-03-07 04:50:00,36.5,32.4,29.78,SW,225,13.6,13.6,85,0.05,,,0.11,meteobridge,2013-03-07 09:50:00,
2013-03-07 04:55:00,36.5,32.4,29.78,SSW,203,15.9,15.9,85,0.06,,,0.12,meteobridge,2013-03-07 09:55:00,
2013-03-07 05:00:00,36.5,32.4,29.78,SW,225,14.5,14.5,85,0.06,,,0.13,meteobridge,2013-03-07 10:00:00,
2013-03-07 05:05:00,36.5,32.4,29.78,South,180,11.4,14.5,85,0.06,,,0.13,meteobridge,2013-03-07 10:05:00,
2013-03-07 05:10:00,36.5,32.4,29.78,SW,225,12.1,17.4,85,0.05,,,0.13,meteobridge,2013-03-07 10:10:00,
2013-03-07 05:16:00,36.1,32.0,29.78,West,270,8.3,9.2,85,0.05,,,0.13,meteobridge,2013-03-07 10:16:00,
2013-03-07 05:21:00,36.3,32.2,29.78,South,180,15.2,15.2,85,0.06,,,0.14,meteobridge,2013-03-07 10:21:00,
2013-03-07 05:26:00,36.3,32.2,29.78,South,180,16.8,16.8,85,0.06,,,0.15,meteobridge,2013-03-07 10:26:00,
2013-03-07 05:31:00,36.3,32.5,29.78,South,180,8.3,8.3,86,0.05,,,0.15,meteobridge,2013-03-07 10:31:00,
2013-03-07 05:36:00,36.5,32.7,29.79,SW,225,17.4,17.4,86,0.05,,,0.15,meteobridge,2013-03-07 10:36:00,
2013-03-07 05:41:00,36.5,32.7,29.78,SW,225,15.2,15.2,86,0.05,,,0.15,meteobridge,2013-03-07 10:41:00,
2013-03-07 05:47:00,36.3,32.2,29.78,SW,225,10.7,19.0,85,0.06,,,0.17,meteobridge,2013-03-07 10:47:00,
2013-03-07 05:52:00,36.3,32.2,29.78,NW,315,11.4,13.0,85,0.05,,,0.17,meteobridge,2013-03-07 10:52:00,
2013-03-07 05:57:00,36.5,32.7,29.78,NW,315,13.0,13.0,86,0.05,,,0.18,meteobridge,2013-03-07 10:57:00,
2013-03-07 06:02:00,36.9,33.1,29.78,NW,315,11.4,11.4,86,0.05,,,0.18,meteobridge,2013-03-07 11:02:00,
2013-03-07 06:07:00,37.2,33.4,29.78,South,180,11.4,11.4,86,0.05,,,0.18,meteobridge,2013-03-07 11:07:00,
2013-03-07 06:12:00,37.0,33.3,29.78,NW,315,9.8,10.7,86,0.05,,,0.18,meteobridge,2013-03-07 11:12:00,
2013-03-07 06:18:00,37.0,32.9,29.79,West,270,18.3,18.3,85,0.05,,,0.19,meteobridge,2013-03-07 11:18:00,
2013-03-07 06:23:00,37.0,32.9,29.78,SE,135,10.7,16.8,85,0.05,,,0.19,meteobridge,2013-03-07 11:23:00,
2013-03-07 06:28:00,37.2,33.1,29.78,WSW,248,13.6,17.4,85,0.04,,,0.19,meteobridge,2013-03-07 11:28:00,
2013-03-07 06:33:00,37.0,32.9,29.79,NW,315,13.6,13.6,85,0.04,,,0.19,meteobridge,2013-03-07 11:33:00,
2013-03-07 06:38:00,37.0,32.9,29.78,North,0,12.1,12.1,85,0.05,,,0.20,meteobridge,2013-03-07 11:38:00,
2013-03-07 06:43:00,37.0,32.9,29.79,SW,225,13.6,13.6,85,0.04,,,0.20,meteobridge,2013-03-07 11:43:00,
2013-03-07 06:49:00,37.2,33.1,29.79,NW,315,15.2,15.9,85,0.04,,,0.20,meteobridge,2013-03-07 11:49:00,
2013-03-07 06:54:00,37.2,33.1,29.79,SW,225,14.5,14.5,85,0.02,,,0.20,meteobridge,2013-03-07 11:54:00,
2013-03-07 06:59:00,37.2,33.1,29.79,SW,225,13.6,13.6,85,0.02,,,0.20,meteobridge,2013-03-07 11:59:00,
2013-03-07 07:04:00,37.4,34.5,29.79,North,0,9.2,12.1,89,0.02,,,0.20,meteobridge,2013-03-07 12:04:00,
2013-03-07 07:09:00,37.4,34.5,29.79,SW,225,13.0,13.0,89,0.02,,,0.20,meteobridge,2013-03-07 12:09:00,
2013-03-07 07:14:00,37.4,34.5,29.79,West,270,9.8,15.2,89,0.02,,,0.20,meteobridge,2013-03-07 12:14:00,
2013-03-07 07:20:00,37.6,34.7,29.80,SW,225,10.7,10.7,89,0.01,,,0.20,meteobridge,2013-03-07 12:20:00,
2013-03-07 07:25:00,37.6,34.7,29.79,NW,315,10.7,13.6,89,0.02,,,0.21,meteobridge,2013-03-07 12:25:00,
2013-03-07 07:30:00,37.8,34.5,29.79,SW,225,13.0,17.4,88,0.02,,,0.21,meteobridge,2013-03-07 12:30:00,
2013-03-07 07:35:00,37.8,34.5,29.80,SW,225,11.4,19.7,88,0.01,,,0.21,meteobridge,2013-03-07 12:35:00,
2013-03-07 07:40:00,37.8,34.5,29.80,NW,315,11.4,14.5,88,0.01,,,0.21,meteobridge,2013-03-07 12:40:00,
2013-03-07 07:45:00,37.8,34.5,29.79,West,270,10.7,12.1,88,0.01,,,0.21,meteobridge,2013-03-07 12:45:00,
2013-03-07 07:50:00,37.8,34.5,29.80,SW,225,12.1,13.6,88,0.01,,,0.21,meteobridge,2013-03-07 12:50:00,
2013-03-07 07:55:00,37.8,34.5,29.79,SW,225,11.4,19.0,88,0.02,,,0.22,meteobridge,2013-03-07 12:55:00,
2013-03-07 08:01:00,37.8,34.5,29.80,West,270,13.6,15.2,88,0.02,,,0.22,meteobridge,2013-03-07 13:01:00,
2013-03-07 08:06:00,37.8,34.5,29.79,NW,315,9.8,15.2,88,0.02,,,0.22,meteobridge,2013-03-07 13:06:00,
2013-03-07 08:11:00,37.9,34.3,29.80,West,270,9.2,9.8,87,0.02,,,0.22,meteobridge,2013-03-07 13:11:00,
2013-03-07 08:16:00,37.8,34.2,29.80,SW,225,13.0,13.0,87,0.02,,,0.22,meteobridge,2013-03-07 13:16:00,
2013-03-07 08:21:00,37.9,34.7,29.79,West,270,13.0,13.0,88,0.01,,,0.22,meteobridge,2013-03-07 13:21:00,
2013-03-07 08:26:00,37.9,34.7,29.80,WSW,248,15.9,15.9,88,0.01,,,0.22,meteobridge,2013-03-07 13:26:00,
2013-03-07 08:31:00,37.9,34.7,29.80,SW,225,15.2,17.4,88,0.01,,,0.22,meteobridge,2013-03-07 13:31:00,
2013-03-07 08:37:00,37.9,34.7,29.79,West,270,22.1,22.1,88,0.02,,,0.24,meteobridge,2013-03-07 13:37:00,
2013-03-07 08:42:00,37.9,34.3,29.79,SW,225,19.0,19.0,87,0.02,,,0.24,meteobridge,2013-03-07 13:42:00,
2013-03-07 08:47:00,38.1,34.5,29.79,North,0,15.9,15.9,87,0.02,,,0.24,meteobridge,2013-03-07 13:47:00,
2013-03-07 08:52:00,37.9,34.3,29.79,North,0,13.6,15.9,87,0.01,,,0.24,meteobridge,2013-03-07 13:52:00,
2013-03-07 08:57:00,37.9,34.3,29.79,NW,315,12.1,13.6,87,0.01,,,0.24,meteobridge,2013-03-07 13:57:00,
2013-03-07 09:02:00,37.9,34.3,29.78,NE,45,15.9,15.9,87,0.01,,,0.24,meteobridge,2013-03-07 14:02:00,
2013-03-07 09:08:00,37.9,34.3,29.79,WSW,248,8.3,13.0,87,0.01,,,0.24,meteobridge,2013-03-07 14:08:00,
2013-03-07 09:13:00,37.9,34.3,29.79,SW,225,11.4,20.6,87,0.02,,,0.25,meteobridge,2013-03-07 14:13:00,
2013-03-07 09:18:00,37.9,34.3,29.79,NW,315,14.5,17.4,87,0.02,,,0.25,meteobridge,2013-03-07 14:18:00,
2013-03-07 09:23:00,37.8,34.2,29.79,NW,315,13.6,13.6,87,0.02,,,0.25,meteobridge,2013-03-07 14:23:00,
2013-03-07 09:28:00,37.8,34.2,29.79,South,180,20.6,20.6,87,0.02,,,0.25,meteobridge,2013-03-07 14:28:00,
2013-03-07 09:33:00,37.9,34.3,29.79,SW,225,13.6,13.6,87,0.02,,,0.25,meteobridge,2013-03-07 14:33:00,
2013-03-07 09:38:00,37.8,34.2,29.79,SW,225,15.2,15.2,87,0.01,,,0.25,meteobridge,2013-03-07 14:38:00,
2013-03-07 09:44:00,37.6,34.0,29.79,North,0,19.7,19.7,87,0.01,,,0.25,meteobridge,2013-03-07 14:44:00,
2013-03-07 09:49:00,37.6,34.3,29.78,WNW,293,14.5,20.6,88,0.01,,,0.25,meteobridge,2013-03-07 14:49:00,
2013-03-07 09:54:00,37.6,34.3,29.78,NW,315,15.2,15.9,88,0.02,,,0.26,meteobridge,2013-03-07 14:54:00,
2013-03-07 09:59:00,37.8,34.5,29.79,SW,225,16.8,16.8,88,0.02,,,0.26,meteobridge,2013-03-07 14:59:00,
2013-03-07 10:04:00,37.8,34.5,29.78,West,270,11.4,12.1,88,0.02,,,0.26,meteobridge,2013-03-07 15:04:00,
2013-03-07 10:09:00,37.9,34.7,29.78,SW,225,15.2,15.9,88,0.01,,,0.26,meteobridge,2013-03-07 15:09:00,
2013-03-07 10:15:00,37.8,34.5,29.78,SW,225,20.6,20.6,88,0.01,,,0.26,meteobridge,2013-03-07 15:15:00,
2013-03-07 10:20:00,37.8,34.5,29.79,South,180,10.7,20.6,88,0.02,,,0.27,meteobridge,2013-03-07 15:20:00,
2013-03-07 10:25:00,37.4,34.2,29.79,WNW,293,13.6,17.4,88,0.02,,,0.27,meteobridge,2013-03-07 15:25:00,
2013-03-07 10:30:00,37.2,32.9,29.78,SW,225,13.0,13.0,84,0.02,,,0.27,meteobridge,2013-03-07 15:30:00,
2013-03-07 10:35:00,37.2,32.9,29.79,SW,225,15.9,16.8,84,0.02,,,0.27,meteobridge,2013-03-07 15:35:00,
2013-03-07 10:40:00,37.2,32.9,29.80,SW,225,10.7,12.1,84,0.04,,,0.28,meteobridge,2013-03-07 15:40:00,
2013-03-07 10:46:00,37.0,32.7,29.79,WNW,293,16.8,16.8,84,0.04,,,0.28,meteobridge,2013-03-07 15:46:00,
2013-03-07 10:51:00,37.0,32.7,29.79,NW,315,9.2,10.7,84,0.04,,,0.28,meteobridge,2013-03-07 15:51:00,
2013-03-07 10:56:00,37.2,32.9,29.79,NW,315,13.6,15.2,84,0.02,,,0.28,meteobridge,2013-03-07 15:56:00,
2013-03-07 11:01:00,37.0,32.7,29.79,South,180,12.1,15.2,84,0.04,,,0.30,meteobridge,2013-03-07 16:01:00,
2013-03-07 11:06:00,37.0,32.7,29.79,WSW,248,21.3,21.3,84,0.04,,,0.30,meteobridge,2013-03-07 16:06:00,
2013-03-07 11:11:00,37.2,32.9,29.78,NW,315,13.6,13.6,84,0.04,,,0.30,meteobridge,2013-03-07 16:11:00,
2013-03-07 11:17:00,37.2,32.9,29.78,West,270,9.2,13.0,84,0.04,,,0.30,meteobridge,2013-03-07 16:17:00,
2013-03-07 11:22:00,37.4,34.5,29.78,SW,225,8.3,10.7,89,0.02,,,0.30,meteobridge,2013-03-07 16:22:00,
2013-03-07 11:27:00,37.4,34.2,29.78,NW,315,9.2,9.8,88,0.04,,,0.31,meteobridge,2013-03-07 16:27:00,
2013-03-07 11:32:00,37.4,34.2,29.78,West,270,15.2,15.2,88,0.04,,,0.31,meteobridge,2013-03-07 16:32:00,
2013-03-07 11:37:00,37.4,34.2,29.78,West,270,9.8,10.7,88,0.02,,,0.31,meteobridge,2013-03-07 16:37:00,
2013-03-07 11:42:00,37.4,34.2,29.78,West,270,10.7,10.7,88,0.02,,,0.31,meteobridge,2013-03-07 16:42:00,
2013-03-07 11:48:00,37.4,34.2,29.78,SW,225,15.9,20.6,88,0.04,,,0.32,meteobridge,2013-03-07 16:48:00,
2013-03-07 11:53:00,37.4,34.2,29.78,SW,225,12.1,15.9,88,0.04,,,0.32,meteobridge,2013-03-07 16:53:00,
2013-03-07 11:58:00,37.4,34.2,29.78,West,270,12.1,12.1,88,0.02,,,0.32,meteobridge,2013-03-07 16:58:00,
2013-03-07 12:03:00,37.4,34.2,29.78,SW,225,15.2,15.2,88,0.02,,,0.32,meteobridge,2013-03-07 17:03:00,
2013-03-07 12:08:00,37.2,32.9,29.77,SW,225,13.6,18.3,84,0.02,,,0.32,meteobridge,2013-03-07 17:08:00,
2013-03-07 12:13:00,37.0,32.7,29.78,SW,225,8.3,14.5,84,0.02,,,0.32,meteobridge,2013-03-07 17:13:00,
2013-03-07 12:19:00,37.0,32.7,29.77,NE,45,15.2,15.2,84,0.04,,,0.33,meteobridge,2013-03-07 17:19:00,
2013-03-07 12:24:00,36.9,32.5,29.77,West,270,11.4,27.3,84,0.02,,,0.33,meteobridge,2013-03-07 17:24:00,
2013-03-07 12:29:00,36.9,32.5,29.78,SW,225,14.5,15.2,84,0.02,,,0.33,meteobridge,2013-03-07 17:29:00,
2013-03-07 12:34:00,36.9,32.7,29.78,SW,225,20.6,20.6,85,0.04,,,0.34,meteobridge,2013-03-07 17:34:00,
2013-03-07 12:39:00,36.9,32.7,29.78,SW,225,16.8,25.1,85,0.04,,,0.34,meteobridge,2013-03-07 17:39:00,
2013-03-07 12:44:00,36.9,32.5,29.78,West,270,7.6,14.5,84,0.04,,,0.34,meteobridge,2013-03-07 17:44:00,
2013-03-07 12:50:00,36.9,32.5,29.78,NW,315,13.0,17.4,84,0.04,,,0.35,meteobridge,2013-03-07 17:50:00,
2013-03-07 12:55:00,36.9,32.5,29.77,NW,315,10.7,14.5,84,0.04,,,0.35,meteobridge,2013-03-07 17:55:00,
2013-03-07 13:00:00,36.7,32.4,29.77,NW,315,17.4,17.4,84,0.05,,,0.37,meteobridge,2013-03-07 18:00:00,
2013-03-07 13:05:00,36.3,32.0,29.78,South,180,13.0,13.0,84,0.05,,,0.37,meteobridge,2013-03-07 18:05:00,
2013-03-07 13:10:00,36.3,32.0,29.77,NW,315,8.3,17.4,84,0.05,,,0.37,meteobridge,2013-03-07 18:10:00,
2013-03-07 13:15:00,36.5,32.4,29.77,SW,225,15.9,15.9,85,0.04,,,0.37,meteobridge,2013-03-07 18:15:00,
2013-03-07 13:21:00,36.5,32.4,29.77,NW,315,13.6,19.0,85,0.05,,,0.38,meteobridge,2013-03-07 18:21:00,
2013-03-07 13:26:00,36.5,32.4,29.77,NW,315,14.5,14.5,85,0.05,,,0.38,meteobridge,2013-03-07 18:26:00,
2013-03-07 13:31:00,36.5,32.4,29.77,NW,315,14.5,16.8,85,0.04,,,0.38,meteobridge,2013-03-07 18:31:00,
2013-03-07 13:36:00,36.5,32.4,29.77,WSW,248,22.1,22.1,85,0.05,,,0.39,meteobridge,2013-03-07 18:36:00,
2013-03-07 13:41:00,36.5,32.2,29.77,WSW,248,13.6,13.6,84,0.05,,,0.39,meteobridge,2013-03-07 18:41:00,
2013-03-07 13:46:00,36.5,32.2,29.76,West,270,15.2,16.8,84,0.04,,,0.39,meteobridge,2013-03-07 18:46:00,
2013-03-07 13:51:00,36.5,32.2,29.77,SW,225,15.9,18.3,84,0.04,,,0.39,meteobridge,2013-03-07 18:51:00,
2013-03-07 13:57:00,36.5,32.2,29.77,West,270,10.7,19.0,84,0.04,,,0.40,meteobridge,2013-03-07 18:57:00,
2013-03-07 14:02:00,36.5,32.2,29.76,NW,315,15.9,15.9,84,0.04,,,0.40,meteobridge,2013-03-07 19:02:00,
2013-03-07 14:07:00,36.5,32.2,29.76,SW,225,10.7,24.4,84,0.04,,,0.40,meteobridge,2013-03-07 19:07:00,
2013-03-07 14:12:00,36.5,32.2,29.76,South,180,9.2,13.0,84,0.04,,,0.40,meteobridge,2013-03-07 19:12:00,
2013-03-07 14:17:00,36.5,32.2,29.77,SW,225,13.0,13.0,84,0.04,,,0.41,meteobridge,2013-03-07 19:17:00,
2013-03-07 14:22:00,36.5,32.2,29.77,West,270,13.0,13.0,84,0.04,,,0.41,meteobridge,2013-03-07 19:22:00,
2013-03-07 14:28:00,36.3,32.0,29.77,West,270,12.1,16.8,84,0.04,,,0.41,meteobridge,2013-03-07 19:28:00,
2013-03-07 14:33:00,36.3,32.0,29.77,South,180,11.4,15.9,84,0.02,,,0.41,meteobridge,2013-03-07 19:33:00,
2013-03-07 14:38:00,36.3,32.0,29.77,West,270,16.8,16.8,84,0.04,,,0.43,meteobridge,2013-03-07 19:38:00,
2013-03-07 14:43:00,36.3,32.0,29.78,SW,225,15.9,18.3,84,0.04,,,0.43,meteobridge,2013-03-07 19:43:00,
2013-03-07 14:48:00,36.1,31.8,29.78,SW,225,10.7,19.7,84,0.05,,,0.44,meteobridge,2013-03-07 19:48:00,
2013-03-07 14:53:00,36.3,32.2,29.78,West,270,13.0,14.5,85,0.05,,,0.44,meteobridge,2013-03-07 19:53:00,
2013-03-07 14:59:00,36.3,32.2,29.78,SW,225,15.2,18.3,85,0.04,,,0.44,meteobridge,2013-03-07 19:59:00,
2013-03-07 15:04:00,36.3,32.2,29.77,South,180,13.6,19.0,85,0.04,,,0.44,meteobridge,2013-03-07 20:04:00,
2013-03-07 15:09:00,36.3,32.2,29.77,SW,225,15.9,15.9,85,0.04,,,0.44,meteobridge,2013-03-07 20:09:00,
2013-03-07 15:14:00,36.3,32.2,29.77,South,180,12.1,14.5,85,0.05,,,0.45,meteobridge,2013-03-07 20:14:00,
2013-03-07 15:19:00,36.3,32.2,29.77,West,270,13.6,15.2,85,0.04,,,0.45,meteobridge,2013-03-07 20:19:00,
2013-03-07 15:24:00,36.3,32.2,29.77,West,270,11.4,17.4,85,0.05,,,0.46,meteobridge,2013-03-07 20:24:00,
2013-03-07 15:29:00,36.3,32.2,29.77,SE,135,18.3,18.3,85,0.05,,,0.46,meteobridge,2013-03-07 20:29:00,
2013-03-07 15:35:00,36.5,32.4,29.77,SW,225,8.3,11.4,85,0.04,,,0.46,meteobridge,2013-03-07 20:35:00,
2013-03-07 15:40:00,36.5,32.4,29.77,SW,225,9.2,13.6,85,0.04,,,0.46,meteobridge,2013-03-07 20:40:00,
2013-03-07 15:45:00,36.3,32.2,29.77,SW,225,13.0,16.8,85,0.05,,,0.47,meteobridge,2013-03-07 20:45:00,
2013-03-07 15:50:00,36.3,32.2,29.77,West,270,10.7,13.6,85,0.05,,,0.48,meteobridge,2013-03-07 20:50:00,
2013-03-07 15:55:00,36.3,32.2,29.77,SE,135,13.0,19.0,85,0.05,,,0.48,meteobridge,2013-03-07 20:55:00,
2013-03-07 16:00:00,36.1,32.0,29.77,NW,315,8.3,16.8,85,0.05,,,0.48,meteobridge,2013-03-07 21:00:00,
2013-03-07 16:05:00,36.1,32.0,29.77,NE,45,13.6,13.6,85,0.06,,,0.50,meteobridge,2013-03-07 21:05:00,
2013-03-07 16:11:00,36.3,32.2,29.77,North,0,13.6,15.2,85,0.06,,,0.51,meteobridge,2013-03-07 21:11:00,
2013-03-07 16:16:00,36.3,32.2,29.77,West,270,15.2,16.8,85,0.06,,,0.51,meteobridge,2013-03-07 21:16:00,
2013-03-07 16:21:00,36.5,32.4,29.77,North,0,20.6,20.6,85,0.07,,,0.52,meteobridge,2013-03-07 21:21:00,
2013-03-07 16:26:00,36.5,32.4,29.78,South,180,17.4,17.4,85,0.07,,,0.53,meteobridge,2013-03-07 21:26:00,
2013-03-07 16:31:00,36.5,32.4,29.78,SW,225,10.7,16.8,85,0.07,,,0.53,meteobridge,2013-03-07 21:31:00,
2013-03-07 16:36:00,36.5,32.4,29.78,South,180,13.0,16.8,85,0.07,,,0.53,meteobridge,2013-03-07 21:36:00,
2013-03-07 16:42:00,36.7,32.5,29.78,SW,225,6.9,11.4,85,0.06,,,0.53,meteobridge,2013-03-07 21:42:00,
2013-03-07 16:47:00,36.7,32.4,29.78,SW,225,14.5,16.8,84,0.07,,,0.54,meteobridge,2013-03-07 21:47:00,
2013-03-07 16:52:00,36.7,32.4,29.77,South,180,13.0,20.6,84,0.06,,,0.54,meteobridge,2013-03-07 21:52:00,
2013-03-07 16:57:00,36.7,32.4,29.78,South,180,12.1,19.0,84,0.07,,,0.56,meteobridge,2013-03-07 21:57:00,
2013-03-07 17:03:00,36.7,32.4,29.78,NW,315,17.4,21.3,84,0.07,,,0.56,meteobridge,2013-03-07 22:03:00,
2013-03-07 17:08:00,36.9,32.5,29.78,SW,225,10.7,15.2,84,0.06,,,0.56,meteobridge,2013-03-07 22:08:00,
2013-03-07 17:13:00,36.9,32.5,29.78,SW,225,10.7,19.7,84,0.05,,,0.56,meteobridge,2013-03-07 22:13:00,
2013-03-07 17:18:00,36.9,32.5,29.78,NW,315,14.5,15.9,84,0.05,,,0.57,meteobridge,2013-03-07 22:18:00,
2013-03-07 17:23:00,36.9,32.5,29.78,SW,225,13.0,13.0,84,0.05,,,0.57,meteobridge,2013-03-07 22:23:00,
2013-03-07 17:28:00,36.9,32.5,29.79,SW,225,13.0,13.0,84,0.04,,,0.57,meteobridge,2013-03-07 22:28:00,
2013-03-07 17:34:00,36.9,32.5,29.78,SW,225,14.5,14.5,84,0.05,,,0.58,meteobridge,2013-03-07 22:34:00,
2013-03-07 17:39:00,36.7,32.4,29.79,SW,225,15.2,15.9,84,0.05,,,0.58,meteobridge,2013-03-07 22:39:00,
2013-03-07 17:44:00,36.5,32.2,29.78,West,270,14.5,14.5,84,0.04,,,0.58,meteobridge,2013-03-07 22:44:00,
2013-03-07 17:49:00,36.5,32.2,29.79,SW,225,15.2,18.3,84,0.04,,,0.58,meteobridge,2013-03-07 22:49:00,
2013-03-07 17:54:00,36.3,32.0,29.78,NW,315,11.4,13.6,84,0.02,,,0.58,meteobridge,2013-03-07 22:54:00,
2013-03-07 17:59:00,36.5,32.2,29.78,South,180,11.4,22.1,84,0.04,,,0.59,meteobridge,2013-03-07 22:59:00,
2013-03-07 18:04:00,36.3,32.0,29.79,SW,225,13.0,13.0,84,0.04,,,0.59,meteobridge,2013-03-07 23:04:00,
2013-03-07 18:10:00,36.3,32.0,29.79,North,0,11.4,13.6,84,0.05,,,0.60,meteobridge,2013-03-07 23:10:00,
2013-03-07 18:15:00,36.1,31.8,29.80,South,180,12.1,13.6,84,0.04,,,0.60,meteobridge,2013-03-07 23:15:00,
2013-03-07 18:20:00,36.0,31.6,29.80,South,180,14.5,19.7,84,0.05,,,0.61,meteobridge,2013-03-07 23:20:00,
2013-03-07 18:25:00,36.0,31.8,29.80,SW,225,14.5,20.6,85,0.05,,,0.61,meteobridge,2013-03-07 23:25:00,
2013-03-07 18:30:00,36.0,31.8,29.80,NW,315,16.8,18.3,85,0.06,,,0.63,meteobridge,2013-03-07 23:30:00,
2013-03-07 18:35:00,36.0,31.8,29.80,SW,225,15.2,16.8,85,0.05,,,0.63,meteobridge,2013-03-07 23:35:00,
2013-03-07 18:41:00,36.1,32.0,29.80,NW,315,12.1,12.1,85,0.05,,,0.63,meteobridge,2013-03-07 23:41:00,
2013-03-07 18:46:00,36.1,32.0,29.79,North,0,21.3,21.3,85,0.06,,,0.64,meteobridge,2013-03-07 23:46:00,
2013-03-07 18:51:00,36.1,32.0,29.79,North,0,14.5,14.5,85,0.06,,,0.64,meteobridge,2013-03-07 23:51:00,
2013-03-07 18:56:00,36.0,31.8,29.80,SW,225,9.8,9.8,85,0.06,,,0.64,meteobridge,2013-03-07 23:56:00,
2013-03-07 19:01:00,36.1,32.0,29.79,SW,225,18.3,18.3,85,0.06,,,0.65,meteobridge,2013-03-08 00:01:00,
2013-03-07 19:06:00,36.1,32.0,29.79,SW,225,7.6,15.2,85,0.05,,,0.65,meteobridge,2013-03-08 00:06:00,
2013-03-07 19:12:00,36.0,31.8,29.79,West,270,16.8,16.8,85,0.05,,,0.65,meteobridge,2013-03-08 00:12:00,
2013-03-07 19:17:00,36.1,32.0,29.79,SE,135,13.6,14.5,85,0.05,,,0.65,meteobridge,2013-03-08 00:17:00,
2013-03-07 19:22:00,36.3,32.2,29.80,SE,135,15.9,15.9,85,0.04,,,0.65,meteobridge,2013-03-08 00:22:00,
2013-03-07 19:27:00,36.3,32.2,29.79,SW,225,13.6,15.9,85,0.02,,,0.65,meteobridge,2013-03-08 00:27:00,
2013-03-07 19:32:00,36.3,32.2,29.80,NE,45,10.7,22.1,85,0.04,,,0.66,meteobridge,2013-03-08 00:32:00,
2013-03-07 19:37:00,36.5,32.4,29.80,SE,135,9.8,12.1,85,0.04,,,0.66,meteobridge,2013-03-08 00:37:00,
2013-03-07 19:43:00,36.7,32.5,29.80,SW,225,17.4,17.4,85,0.04,,,0.66,meteobridge,2013-03-08 00:43:00,
2013-03-07 19:48:00,36.7,32.5,29.80,West,270,14.5,14.5,85,0.02,,,0.66,meteobridge,2013-03-08 00:48:00,
2013-03-07 19:53:00,36.7,32.5,29.80,WNW,293,15.2,15.2,85,0.02,,,0.66,meteobridge,2013-03-08 00:53:00,
2013-03-07 19:58:00,36.7,32.5,29.78,NE,45,8.3,11.4,85,0.01,,,0.66,meteobridge,2013-03-08 00:58:00,
2013-03-07 20:03:00,36.7,32.5,29.79,WSW,248,10.7,13.6,85,0.01,,,0.66,meteobridge,2013-03-08 01:03:00,
2013-03-07 20:08:00,36.7,32.5,29.79,SW,225,10.7,13.6,85,0.01,,,0.66,meteobridge,2013-03-08 01:08:00,
2013-03-07 20:14:00,36.9,32.7,29.79,SW,225,9.8,18.3,85,0.02,,,0.67,meteobridge,2013-03-08 01:14:00,
2013-03-07 20:19:00,36.7,32.5,29.79,WSW,248,13.0,17.4,85,0.02,,,0.67,meteobridge,2013-03-08 01:19:00,
2013-03-07 20:24:00,36.7,32.5,29.78,SW,225,11.4,13.6,85,0.02,,,0.67,meteobridge,2013-03-08 01:24:00,
2013-03-07 20:29:00,36.7,32.5,29.78,West,270,8.3,10.7,85,0.02,,,0.67,meteobridge,2013-03-08 01:29:00,
2013-03-07 20:34:00,36.9,33.1,29.79,SW,225,12.1,13.6,86,0.01,,,0.67,meteobridge,2013-03-08 01:34:00,
2013-03-07 20:39:00,36.9,33.1,29.78,SSW,203,13.0,19.0,86,0.01,,,0.67,meteobridge,2013-03-08 01:39:00,
2013-03-07 20:45:00,36.9,33.1,29.78,SW,225,8.3,16.8,86,0.01,,,0.67,meteobridge,2013-03-08 01:45:00,
2013-03-07 20:50:00,36.9,33.1,29.79,SW,225,8.3,8.3,86,0.01,,,0.67,meteobridge,2013-03-08 01:50:00,
2013-03-07 20:55:00,36.7,32.5,29.78,South,180,12.1,13.0,85,0.01,,,0.67,meteobridge,2013-03-08 01:55:00,
2013-03-07 21:00:00,36.7,32.5,29.79,SW,225,12.1,12.1,85,0.01,,,0.67,meteobridge,2013-03-08 02:00:00,
2013-03-07 21:05:00,36.7,32.5,29.78,NW,315,13.6,13.6,85,0.02,,,0.69,meteobridge,2013-03-08 02:05:00,
2013-03-07 21:10:00,36.9,32.7,29.78,NW,315,13.6,14.5,85,0.02,,,0.69,meteobridge,2013-03-08 02:10:00,
2013-03-07 21:16:00,37.0,32.9,29.78,West,270,12.1,13.0,85,0.01,,,0.69,meteobridge,2013-03-08 02:16:00,
2013-03-07 21:21:00,37.0,32.9,29.78,WNW,293,23.5,23.5,85,0.02,,,0.70,meteobridge,2013-03-08 02:21:00,
2013-03-07 21:26:00,36.9,32.5,29.78,West,270,19.0,19.0,84,0.02,,,0.70,meteobridge,2013-03-08 02:26:00,
2013-03-07 21:31:00,37.0,32.7,29.78,South,180,12.1,15.9,84,0.02,,,0.70,meteobridge,2013-03-08 02:31:00,
2013-03-07 21:36:00,37.2,32.9,29.78,SW,225,15.2,15.2,84,0.02,,,0.70,meteobridge,2013-03-08 02:36:00,
2013-03-07 21:41:00,37.0,32.7,29.78,NW,315,14.5,14.5,84,0.02,,,0.70,meteobridge,2013-03-08 02:41:00,
2013-03-07 21:47:00,37.0,32.7,29.77,South,180,12.1,14.5,84,0.02,,,0.70,meteobridge,2013-03-08 02:47:00,
2013-03-07 21:52:00,37.0,32.7,29.78,West,270,12.1,19.0,84,0.04,,,0.71,meteobridge,2013-03-08 02:52:00,
2013-03-07 21:57:00,36.9,32.5,29.78,SW,225,12.1,18.3,84,0.04,,,0.71,meteobridge,2013-03-08 02:57:00,
2013-03-07 22:02:00,36.7,32.4,29.78,South,180,14.5,14.5,84,0.02,,,0.71,meteobridge,2013-03-08 03:02:00,
2013-03-07 22:07:00,36.5,32.2,29.78,WNW,293,13.6,13.6,84,0.02,,,0.71,meteobridge,2013-03-08 03:07:00,
2013-03-07 22:12:00,36.5,32.2,29.78,NNW,338,12.1,12.1,84,0.02,,,0.71,meteobridge,2013-03-08 03:12:00,
2013-03-07 22:17:00,36.5,32.2,29.78,WSW,248,13.6,16.8,84,0.02,,,0.71,meteobridge,2013-03-08 03:17:00,
2013-03-07 22:23:00,36.5,32.2,29.78,SW,225,11.4,11.4,84,0.01,,,0.71,meteobridge,2013-03-08 03:23:00,
2013-03-07 22:28:00,36.5,32.4,29.78,WSW,248,10.7,16.8,85,0.02,,,0.72,meteobridge,2013-03-08 03:28:00,
2013-03-07 22:33:00,36.5,32.4,29.78,NW,315,14.5,15.9,85,0.02,,,0.72,meteobridge,2013-03-08 03:33:00,
2013-03-07 22:38:00,36.5,32.4,29.78,SW,225,10.7,14.5,85,0.02,,,0.72,meteobridge,2013-03-08 03:38:00,
2013-03-07 22:43:00,36.5,32.4,29.77,North,0,10.7,13.6,85,0.02,,,0.72,meteobridge,2013-03-08 03:43:00,
2013-03-07 22:48:00,36.5,32.4,29.77,West,270,10.7,10.7,85,0.02,,,0.72,meteobridge,2013-03-08 03:48:00,
2013-03-07 22:54:00,36.3,32.2,29.78,SW,225,13.6,13.6,85,0.01,,,0.72,meteobridge,2013-03-08 03:54:00,
2013-03-07 22:59:00,36.3,32.2,29.77,SW,225,10.7,12.1,85,0.01,,,0.72,meteobridge,2013-03-08 03:59:00,
2013-03-07 23:04:00,36.3,32.2,29.78,South,180,6.9,6.9,85,0.01,,,0.72,meteobridge,2013-03-08 04:04:00,
2013-03-07 23:09:00,36.1,32.0,29.77,SW,225,14.5,14.5,85,0.02,,,0.73,meteobridge,2013-03-08 04:09:00,
2013-03-07 23:14:00,35.8,31.6,29.77,SW,225,15.9,16.8,85,0.04,,,0.74,meteobridge,2013-03-08 04:14:00,
2013-03-07 23:19:00,35.8,31.6,29.76,South,180,9.8,11.4,85,0.04,,,0.74,meteobridge,2013-03-08 04:19:00,
2013-03-07 23:25:00,35.6,31.5,29.76,North,0,11.4,15.9,85,0.02,,,0.74,meteobridge,2013-03-08 04:25:00,
2013-03-07 23:30:00,35.8,31.6,29.76,West,270,18.3,18.3,85,0.04,,,0.76,meteobridge,2013-03-08 04:30:00,
2013-03-07 23:35:00,35.6,31.5,29.76,WSW,248,9.8,13.0,85,0.04,,,0.76,meteobridge,2013-03-08 04:35:00,
2013-03-07 23:40:00,35.4,31.6,29.76,SW,225,16.8,16.8,86,0.05,,,0.77,meteobridge,2013-03-08 04:40:00,
2013-03-07 23:45:00,35.4,31.6,29.76,SW,225,10.7,13.0,86,0.05,,,0.77,meteobridge,2013-03-08 04:45:00,
2013-03-07 23:50:00,35.4,31.6,29.75,NE,45,13.6,16.8,86,0.05,,,0.77,meteobridge,2013-03-08 04:50:00,
2013-03-07 23:56:00,35.4,31.6,29.75,WSW,248,7.6,11.4,86,0.05,,,0.77,meteobridge,2013-03-08 04:56:00,